TimeMST,TemperatureF,Dew PointF,Humidity,Sea Level PressureIn,VisibilityMPH,Wind Direction,Wind SpeedMPH,Gust SpeedMPH,PrecipitationIn,Events,Conditions,WindDirDegrees,DateUTC
12:15 AM,28.4,21.2,74,30.38,1.2,Calm,Calm,-,N/A,,Overcast,0,2014-01-19 07:15:00
12:35 AM,28.4,21.2,74,30.37,1.0,NNE,3.5,-,N/A,,Overcast,30,2014-01-19 07:35:00
12:55 AM,28.4,21.2,74,30.36,1.0,North,3.5,-,N/A,,Overcast,350,2014-01-19 07:55:00
1:15 AM,28.4,21.2,74,30.36,1.0,North,3.5,-,N/A,,Overcast,350,2014-01-19 08:15:00
1:35 AM,26.6,21.2,80,30.36,1.0,North,3.5,-,N/A,,Overcast,10,2014-01-19 08:35:00
1:55 AM,26.6,21.2,80,30.35,1.2,Calm,Calm,-,N/A,,Overcast,0,2014-01-19 08:55:00
2:15 AM,26.6,21.2,80,30.35,1.8,Calm,Calm,-,N/A,,Overcast,0,2014-01-19 09:15:00
2:35 AM,26.6,21.2,80,30.35,2.0,Calm,Calm,-,N/A,,Overcast,0,2014-01-19 09:35:00
2:55 AM,26.6,21.2,80,30.35,1.2,Calm,Calm,-,N/A,,Overcast,0,2014-01-19 09:55:00
3:15 AM,26.6,21.2,80,30.36,1.0,Calm,Calm,-,N/A,,Overcast,0,2014-01-19 10:15:00
3:35 AM,28.4,21.2,74,30.36,0.8,Calm,Calm,-,N/A,,Overcast,0,2014-01-19 10:35:00
3:55 AM,28.4,21.2,74,30.36,0.8,Calm,Calm,-,N/A,,Overcast,0,2014-01-19 10:55:00
4:15 AM,28.4,21.2,74,30.36,0.5,Calm,Calm,-,N/A,,Overcast,0,2014-01-19 11:15:00
4:35 AM,28.4,21.2,74,30.36,0.8,Calm,Calm,-,N/A,,Overcast,0,2014-01-19 11:35:00
4:55 AM,28.4,21.2,74,30.36,0.8,Calm,Calm,-,N/A,,Overcast,0,2014-01-19 11:55:00
5:15 AM,28.4,21.2,74,30.35,0.5,East,4.6,-,N/A,,Overcast,80,2014-01-19 12:15:00
5:35 AM,26.6,21.2,80,30.35,0.8,East,4.6,-,N/A,,Overcast,90,2014-01-19 12:35:00
5:55 AM,26.6,19.4,74,30.35,0.8,East,3.5,-,N/A,,Overcast,90,2014-01-19 12:55:00
6:15 AM,26.6,21.2,80,30.35,0.8,ENE,4.6,-,N/A,,Overcast,60,2014-01-19 13:15:00
6:35 AM,26.6,21.2,80,30.36,0.8,East,3.5,-,N/A,,Overcast,80,2014-01-19 13:35:00
6:55 AM,26.6,21.2,80,30.35,0.5,Calm,Calm,-,N/A,,Overcast,0,2014-01-19 13:55:00
7:15 AM,26.6,21.2,80,30.35,0.8,Calm,Calm,-,N/A,,Overcast,0,2014-01-19 14:15:00
7:35 AM,26.6,21.2,80,30.35,1.0,Calm,Calm,-,N/A,,Overcast,0,2014-01-19 14:35:00
7:55 AM,26.6,21.2,80,30.36,2.0,Calm,Calm,-,N/A,,Overcast,0,2014-01-19 14:55:00
8:15 AM,26.6,21.2,80,30.36,2.0,ENE,4.6,-,N/A,,Overcast,60,2014-01-19 15:15:00
8:35 AM,26.6,21.2,80,30.35,1.2,ENE,3.5,-,N/A,,Overcast,70,2014-01-19 15:35:00
8:55 AM,26.6,19.4,74,30.36,1.2,NE,4.6,-,N/A,,Overcast,50,2014-01-19 15:55:00
9:15 AM,26.6,19.4,74,30.36,1.2,ENE,4.6,-,N/A,,Overcast,60,2014-01-19 16:15:00
9:35 AM,26.6,19.4,74,30.37,1.0,East,3.5,-,N/A,,Overcast,80,2014-01-19 16:35:00
9:55 AM,26.6,19.4,74,30.37,0.8,East,4.6,-,N/A,,Overcast,80,2014-01-19 16:55:00
10:15 AM,26.6,19.4,74,30.37,0.8,East,4.6,-,N/A,,Overcast,80,2014-01-19 17:15:00
10:35 AM,26.6,21.2,80,30.37,1.5,East,4.6,-,N/A,,Overcast,90,2014-01-19 17:35:00
10:55 AM,26.6,21.2,80,30.37,2.5,East,4.6,-,N/A,,Overcast,90,2014-01-19 17:55:00
11:15 AM,28.4,21.2,74,30.37,1.5,Calm,Calm,-,N/A,,Overcast,0,2014-01-19 18:15:00
11:35 AM,28.4,21.2,74,30.37,2.0,SSW,5.8,-,N/A,,Overcast,200,2014-01-19 18:35:00
11:55 AM,28.4,21.2,74,30.36,2.5,South,3.5,-,N/A,,Overcast,170,2014-01-19 18:55:00
12:15 PM,28.4,21.2,74,30.35,3.0,SSE,3.5,-,N/A,,Overcast,150,2014-01-19 19:15:00
12:35 PM,28.4,21.2,74,30.35,3.0,Calm,Calm,-,N/A,,Overcast,0,2014-01-19 19:35:00
12:55 PM,26.6,21.2,80,30.34,3.0,ESE,3.5,-,N/A,,Overcast,110,2014-01-19 19:55:00
1:15 PM,28.4,21.2,74,30.33,3.0,Calm,Calm,-,N/A,,Overcast,0,2014-01-19 20:15:00
1:35 PM,28.4,21.2,74,30.32,3.0,Calm,Calm,-,N/A,,Overcast,0,2014-01-19 20:35:00
1:55 PM,28.4,21.2,74,30.31,5.0,Calm,Calm,-,N/A,,Overcast,0,2014-01-19 20:55:00
2:15 PM,28.4,21.2,74,30.31,5.0,Calm,Calm,-,N/A,,Overcast,0,2014-01-19 21:15:00
2:35 PM,28.4,21.2,74,30.30,4.0,NE,4.6,-,N/A,,Overcast,40,2014-01-19 21:35:00
2:55 PM,28.4,21.2,74,30.30,3.0,NE,3.5,-,N/A,,Overcast,40,2014-01-19 21:55:00
3:15 PM,28.4,21.2,74,30.31,4.0,North,3.5,-,N/A,,Overcast,10,2014-01-19 22:15:00
3:35 PM,28.4,21.2,74,30.31,3.0,North,3.5,-,N/A,,Overcast,360,2014-01-19 22:35:00
3:55 PM,28.4,23.0,80,30.31,3.0,NNW,5.8,-,N/A,,Overcast,340,2014-01-19 22:55:00
4:15 PM,28.4,23.0,80,30.31,4.0,NNW,6.9,-,N/A,,Overcast,330,2014-01-19 23:15:00
4:35 PM,28.4,21.2,74,30.31,4.0,NNW,4.6,-,N/A,,Overcast,330,2014-01-19 23:35:00
4:55 PM,28.4,21.2,74,30.30,5.0,NNW,4.6,-,N/A,,Overcast,340,2014-01-19 23:55:00
5:15 PM,28.4,21.2,74,30.31,5.0,WNW,4.6,-,N/A,,Overcast,290,2014-01-20 00:15:00
5:35 PM,28.4,21.2,74,30.30,5.0,Calm,Calm,-,N/A,,Overcast,0,2014-01-20 00:35:00
5:55 PM,28.4,21.2,74,30.30,5.0,WNW,4.6,-,N/A,,Overcast,300,2014-01-20 00:55:00
6:15 PM,28.4,21.2,74,30.31,6.0,WNW,6.9,-,N/A,,Overcast,300,2014-01-20 01:15:00
6:35 PM,28.4,19.4,69,30.31,7.0,WNW,3.5,-,N/A,,Overcast,300,2014-01-20 01:35:00
6:55 PM,28.4,21.2,74,30.31,7.0,NNW,5.8,-,N/A,,Overcast,330,2014-01-20 01:55:00
7:15 PM,28.4,21.2,74,30.32,6.0,NW,5.8,-,N/A,,Overcast,320,2014-01-20 02:15:00
7:35 PM,28.4,21.2,74,30.32,6.0,North,5.8,-,N/A,,Overcast,350,2014-01-20 02:35:00
7:55 PM,28.4,19.4,69,30.32,7.0,NW,6.9,-,N/A,,Overcast,320,2014-01-20 02:55:00
8:15 PM,28.4,21.2,74,30.32,7.0,NNW,3.5,-,N/A,,Overcast,330,2014-01-20 03:15:00
8:35 PM,28.4,21.2,74,30.32,7.0,North,5.8,-,N/A,,Overcast,350,2014-01-20 03:35:00
8:55 PM,26.6,19.4,74,30.32,7.0,North,3.5,-,N/A,,Overcast,350,2014-01-20 03:55:00
9:15 PM,26.6,19.4,74,30.33,7.0,NNW,4.6,-,N/A,,Overcast,340,2014-01-20 04:15:00
9:35 PM,26.6,21.2,80,30.34,7.0,North,8.1,-,N/A,,Overcast,360,2014-01-20 04:35:00
9:55 PM,26.6,19.4,74,30.35,7.0,North,8.1,-,N/A,,Overcast,360,2014-01-20 04:55:00
10:15 PM,26.6,19.4,74,30.35,8.0,North,5.8,-,N/A,,Overcast,10,2014-01-20 05:15:00
10:35 PM,26.6,19.4,74,30.35,7.0,North,5.8,-,N/A,,Overcast,350,2014-01-20 05:35:00
10:55 PM,26.6,19.4,74,30.36,7.0,NW,5.8,-,N/A,,Overcast,310,2014-01-20 05:55:00
11:15 PM,26.6,19.4,74,30.35,6.0,NW,4.6,-,N/A,,Overcast,320,2014-01-20 06:15:00
11:35 PM,26.6,19.4,74,30.36,6.0,NW,3.5,-,N/A,,Overcast,310,2014-01-20 06:35:00
11:55 PM,26.6,21.2,80,30.37,6.0,NW,3.5,-,N/A,,Overcast,320,2014-01-20 06:55:00